When you browse on this site, cookies collect data to enhance your experience and personalize the content and advertising you see.
Visit our Privacy Policy to learn more. By continuing to use the site, you agree to this use of cookies and data.
  • In Sweden
  • List of Countries
  • For 7 days
  • Water Temperature
  • Weather Map
  • Weather Widgets
  • user-avatar
    Login

    Hourly Weather Pigasy

    Today, 26 February, Wednesday

    Time Temperature Precipitation Wind Pressure Humidity
    00:00 +3°C° 0.4 mm 5 mps 733 mmHg 94%
    01:00 +4°C° 0.4 mm 4 mps 733 mmHg 94%
    02:00 +4°C° 0.4 mm 4 mps 732 mmHg 95%
    03:00 +4°C° 0.5 mm 4 mps 732 mmHg 95%
    04:00 +4°C° 0.5 mm 3 mps 732 mmHg 94%
    05:00 +4°C° 0.5 mm 3 mps 731 mmHg 94%
    06:00 +4°C° 0 mm 3 mps 731 mmHg 93%
    07:00 +4°C° 0 mm 2 mps 731 mmHg 92%
    08:00 +3°C° 0 mm 2 mps 731 mmHg 91%
    09:00 +4°C° 0 mm 2 mps 731 mmHg 84%
    10:00 +6°C° 0 mm 2 mps 731 mmHg 78%
    11:00 +8°C° 0 mm 1 mps 731 mmHg 72%
    12:00 +7°C° 0 mm 2 mps 731 mmHg 70%
    13:00 +8°C° 0 mm 2 mps 731 mmHg 69%
    14:00 +9°C° 0 mm 3 mps 730 mmHg 68%
    15:00 +8°C° 0.7 mm 2 mps 730 mmHg 75%
    16:00 +7°C° 0.7 mm 2 mps 730 mmHg 82%
    17:00 +7°C° 0.7 mm 1 mps 730 mmHg 89%
    18:00 +7°C° 0 mm 1 mps 730 mmHg 90%
    19:00 +6°C° 0 mm 1 mps 730 mmHg 91%
    20:00 +6°C° 0 mm 1 mps 730 mmHg 92%
    21:00 +6°C° 0.1 mm 1 mps 730 mmHg 91%
    22:00 +6°C° 0.1 mm 1 mps 730 mmHg 91%
    23:00 +4°C° 0.1 mm 2 mps 730 mmHg 91%

    Tomorrow, 27 February, Thursday

    Time Temperature Precipitation Wind Pressure Humidity
    00:00 +4°C° 0 mm 2 mps 731 mmHg 90%
    01:00 +4°C° 0 mm 2 mps 731 mmHg 90%
    02:00 +2°C° 0 mm 3 mps 731 mmHg 89%
    03:00 +2°C° 0 mm 3 mps 731 mmHg 89%
    04:00 0°C° 0 mm 4 mps 731 mmHg 89%
    05:00 0°C° 0 mm 4 mps 731 mmHg 89%
    06:00 0°C° 0 mm 4 mps 732 mmHg 89%
    07:00 -1°C° 0 mm 4 mps 732 mmHg 89%
    08:00 -1°C° 0 mm 4 mps 733 mmHg 89%
    09:00 0°C° 0 mm 5 mps 733 mmHg 84%
    10:00 0°C° 0 mm 5 mps 733 mmHg 79%
    11:00 +1°C° 0 mm 5 mps 734 mmHg 74%
    12:00 +2°C° 0 mm 6 mps 734 mmHg 69%
    13:00 +2°C° 0 mm 6 mps 734 mmHg 65%
    14:00 +3°C° 0 mm 6 mps 735 mmHg 60%
    15:00 +2°C° 0.1 mm 6 mps 735 mmHg 62%
    16:00 +2°C° 0.1 mm 6 mps 735 mmHg 63%
    17:00 +1°C° 0.1 mm 6 mps 735 mmHg 64%
    18:00 0°C° 0 mm 5 mps 735 mmHg 68%
    19:00 0°C° 0 mm 5 mps 736 mmHg 71%
    20:00 -1°C° 0 mm 4 mps 736 mmHg 75%
    21:00 -2°C° 0 mm 4 mps 736 mmHg 77%
    22:00 -1°C° 0 mm 3 mps 736 mmHg 79%
    23:00 -2°C° 0 mm 3 mps 736 mmHg 80%

    Day after tomorrow, 28 February, Friday

    Time Temperature Precipitation Wind Pressure Humidity
    00:00 -2°C° 0 mm 3 mps 736 mmHg 80%
    01:00 -2°C° 0 mm 3 mps 736 mmHg 80%
    02:00 -2°C° 0 mm 2 mps 736 mmHg 80%
    03:00 -2°C° 0 mm 2 mps 736 mmHg 80%
    04:00 -2°C° 0 mm 2 mps 736 mmHg 81%
    05:00 -2°C° 0 mm 2 mps 736 mmHg 81%
    06:00 -2°C° 0 mm 2 mps 735 mmHg 79%
    07:00 -1°C° 0 mm 3 mps 735 mmHg 78%
    08:00 -1°C° 0 mm 3 mps 735 mmHg 77%
    09:00 0°C° 0 mm 3 mps 735 mmHg 72%
    10:00 +1°C° 0 mm 3 mps 735 mmHg 67%
    11:00 +1°C° 0 mm 4 mps 735 mmHg 62%
    12:00 +2°C° 0.1 mm 3 mps 735 mmHg 63%
    13:00 +3°C° 0.1 mm 2 mps 736 mmHg 65%
    14:00 +4°C° 0.1 mm 2 mps 736 mmHg 66%
    15:00 +3°C° 0.6 mm 2 mps 736 mmHg 73%
    16:00 +2°C° 0.6 mm 2 mps 736 mmHg 80%
    17:00 +2°C° 0.6 mm 2 mps 736 mmHg 86%
    18:00 +1°C° 0.3 mm 2 mps 737 mmHg 86%
    19:00 +1°C° 0.3 mm 2 mps 738 mmHg 86%
    20:00 +1°C° 0.3 mm 2 mps 738 mmHg 86%
    21:00 +1°C° 0 mm 2 mps 739 mmHg 85%
    22:00 0°C° 0 mm 3 mps 739 mmHg 84%
    23:00 -1°C° 0 mm 3 mps 740 mmHg 83%

    29 February, Saturday

    Time Temperature Precipitation Wind Pressure Humidity
    00:00 -1°C° 0 mm 3 mps 740 mmHg 85%
    01:00 -2°C° 0 mm 4 mps 741 mmHg 87%
    02:00 -2°C° 0 mm 4 mps 741 mmHg 88%
    03:00 -2°C° 0 mm 4 mps 741 mmHg 90%
    04:00 -3°C° 0 mm 4 mps 742 mmHg 92%
    05:00 -3°C° 0 mm 4 mps 742 mmHg 94%
    06:00 -3°C° 0 mm 4 mps 742 mmHg 92%
    07:00 -2°C° 0 mm 5 mps 742 mmHg 91%
    08:00 -3°C° 0 mm 6 mps 742 mmHg 90%
    09:00 -1°C° 0 mm 5 mps 742 mmHg 86%
    10:00 -1°C° 0 mm 5 mps 743 mmHg 81%
    11:00 0°C° 0 mm 5 mps 743 mmHg 77%
    12:00 0°C° 0 mm 5 mps 743 mmHg 76%
    13:00 0°C° 0 mm 5 mps 743 mmHg 75%
    14:00 0°C° 0 mm 5 mps 743 mmHg 74%
    15:00 0°C° 0 mm 5 mps 743 mmHg 74%
    16:00 0°C° 0 mm 4 mps 743 mmHg 75%
    17:00 0°C° 0 mm 4 mps 743 mmHg 75%
    18:00 0°C° 0 mm 3 mps 743 mmHg 78%
    19:00 -1°C° 0 mm 3 mps 743 mmHg 82%
    20:00 -1°C° 0 mm 2 mps 743 mmHg 86%
    21:00 -1°C° 0 mm 3 mps 742 mmHg 86%
    22:00 -1°C° 0 mm 3 mps 742 mmHg 86%
    23:00 -2°C° 0 mm 4 mps 742 mmHg 86%

    1 March, Sunday

    Time Temperature Precipitation Wind Pressure Humidity
    00:00 -2°C° 0 mm 4 mps 741 mmHg 85%
    01:00 -1°C° 0 mm 5 mps 741 mmHg 84%
    02:00 -1°C° 0 mm 5 mps 740 mmHg 83%
    03:00 -1°C° 0 mm 5 mps 740 mmHg 81%
    04:00 0°C° 0 mm 5 mps 739 mmHg 80%
    05:00 -1°C° 0 mm 6 mps 739 mmHg 78%
    06:00 -1°C° 0 mm 6 mps 738 mmHg 77%
    07:00 -1°C° 0 mm 6 mps 738 mmHg 76%
    08:00 -1°C° 0 mm 6 mps 738 mmHg 75%
    09:00 +1°C° 0 mm 6 mps 738 mmHg 74%
    10:00 +2°C° 0 mm 6 mps 738 mmHg 74%
    11:00 +3°C° 0 mm 6 mps 737 mmHg 74%
    12:00 +3°C° 0.4 mm 5 mps 737 mmHg 78%
    13:00 +4°C° 0.4 mm 4 mps 737 mmHg 83%
    14:00 +4°C° 0.4 mm 4 mps 737 mmHg 88%
    15:00 +3°C° 1.1 mm 4 mps 737 mmHg 91%
    16:00 +3°C° 1.1 mm 3 mps 737 mmHg 94%
    17:00 +3°C° 1.1 mm 3 mps 737 mmHg 97%
    18:00 +3°C° 0.1 mm 3 mps 737 mmHg 97%
    19:00 +2°C° 0.1 mm 3 mps 737 mmHg 97%
    20:00 +2°C° 0.1 mm 3 mps 737 mmHg 97%
    21:00 +2°C° 0 mm 3 mps 737 mmHg 96%
    22:00 +2°C° 0 mm 3 mps 737 mmHg 95%
    23:00 +2°C° 0 mm 3 mps 737 mmHg 94%

    2 March, Monday

    Time Temperature Precipitation Wind Pressure Humidity
    00:00 +2°C° 0 mm 3 mps 737 mmHg 94%
    01:00 +2°C° 0 mm 3 mps 737 mmHg 93%
    02:00 +3°C° 0 mm 2 mps 737 mmHg 92%
    03:00 +2°C° 0 mm 3 mps 737 mmHg 92%
    04:00 +1°C° 0 mm 3 mps 737 mmHg 93%
    05:00 +1°C° 0 mm 3 mps 737 mmHg 93%
    06:00 +1°C° 0 mm 3 mps 737 mmHg 93%
    07:00 +1°C° 0 mm 3 mps 737 mmHg 94%
    08:00 +1°C° 0 mm 3 mps 737 mmHg 94%
    09:00 +2°C° 0 mm 3 mps 737 mmHg 89%
    10:00 +4°C° 0 mm 3 mps 737 mmHg 84%
    11:00 +5°C° 0 mm 4 mps 737 mmHg 79%
    12:00 +6°C° 0 mm 4 mps 737 mmHg 74%
    13:00 +7°C° 0 mm 4 mps 737 mmHg 70%
    14:00 +8°C° 0 mm 5 mps 737 mmHg 65%
    15:00 +7°C° 0 mm 4 mps 737 mmHg 66%
    16:00 +7°C° 0 mm 4 mps 737 mmHg 68%
    17:00 +7°C° 0 mm 4 mps 737 mmHg 70%
    18:00 +6°C° 0 mm 4 mps 737 mmHg 74%
    19:00 +5°C° 0 mm 4 mps 737 mmHg 79%
    20:00 +4°C° 0 mm 4 mps 736 mmHg 84%
    21:00 +4°C° 0 mm 4 mps 737 mmHg 86%
    22:00 +4°C° 0 mm 4 mps 737 mmHg 87%
    23:00 +4°C° 0 mm 4 mps 738 mmHg 89%
    Show more